Cross City, FL

10:54 PM EDT on October 18, 2019 (GMT -0400)
Cross City

Weather History for KCTY - July, 2019

Change the Weather History Date:

Friday, July 12, 2019

  Actual Average Record
Temperature  
Mean Temperature 83 °F 81 °F  
Max Temperature 91 °F 91 °F 100 °F (2016)
Min Temperature 74 °F 72 °F 69 °F (2012)
Degree Days  
Heating Degree Days 0    
Month to date heating degree days 0  
Since 1 June heating degree days 0  
Since 1 July heating degree days 0  
Cooling Degree Days 18    
Month to date cooling degree days 219  
Year to date cooling degree days 1395  
Since 1 June cooling degree days 711  
Growing Degree Days 32 (Base 50)    
Moisture  
Dew Point 75 °F    
Average Humidity 88    
Maximum Humidity 98    
Minimum Humidity 53    
Precipitation  
Precipitation 0.14 in 0.19 in 2.02 in (2010)
Month to date precipitation 2.03 2.04  
Year to date precipitation 30.68 24.30  
Sea Level Pressure  
Sea Level Pressure 29.98 in    
Wind  
Wind Speed 6 mph (SSE)    
Max Wind Speed 18 mph    
Max Gust Speed 30 mph    
Visibility 10 miles    
Events Rain , Thunderstorm    
T = Trace of Precipitation, MM = Missing Value Source: NWS Daily Summary

Daily Weather History Graph

Daily Weather History Graph

Search for Another Location

Airport or City:

Astronomy

Jul. 12, 2019 Rise Set
Actual Time 6:40 AM EDT 8:35 PM EDT
Civil Twilight 6:13 AM EDT 9:02 PM EDT
Nautical Twilight 5:41 AM EDT 9:34 PM EDT
Astronomical Twilight 5:06 AM EDT 10:08 PM EDT
Moon 4:59 PM EDT (7/12) 3:14 AM EDT (7/12)
Length of Visible Light 14h 48m
Length of Day
13h 54m
Waxing Gibbous, 82% of the Moon is Illuminated
Jul 12
Waxing Gibbous
Jul 16
Full
Jul 24
Last Quarter
Jul 31
New
Aug 7
First Quarter

Hourly Weather History & Observations

Time (EDT) Temp. Heat Index Dew Point Humidity Pressure Visibility Wind Dir Wind Speed Gust Speed Precip Events Conditions
12:15 AM 76.3 °F - 74.1 °F 93% 29.98 in 10.0 mi SE 9.2 mph - N/A Rain , Thunderstorm Light Thunderstorms and Rain
12:35 AM 76.1 °F - 74.7 °F 95% 29.97 in 10.0 mi SE 4.6 mph - 0.01 in Rain Light Rain
12:55 AM 76.1 °F - 74.7 °F 95% 29.97 in 10.0 mi SSE 8.1 mph - 0.01 in Rain Light Rain
1:15 AM 76.1 °F - 74.7 °F 95% 29.96 in 10.0 mi SSE 5.8 mph - N/A Rain Light Rain
1:35 AM 76.1 °F - 74.7 °F 95% 29.95 in 10.0 mi SSE 4.6 mph - 0.02 in Rain Light Rain
1:55 AM 75.9 °F - 74.5 °F 95% 29.95 in 10.0 mi SSE 3.5 mph - 0.02 in   Overcast
2:15 AM 75.7 °F - 74.7 °F 96% 29.96 in 10.0 mi East 3.5 mph - N/A   Mostly Cloudy
2:55 AM 75.6 °F - 74.3 °F 96% 29.94 in 10.0 mi Calm Calm - N/A Rain Light Rain
3:15 AM 75.6 °F - 74.5 °F 96% 29.95 in 10.0 mi Calm Calm - N/A   Mostly Cloudy
3:35 AM 75.6 °F - 74.5 °F 96% 29.95 in 10.0 mi SE 4.6 mph - N/A   Mostly Cloudy
3:55 AM 75.7 °F - 74.7 °F 96% 29.95 in 7.0 mi South 6.9 mph - 0.01 in Rain Rain
4:15 AM 75.6 °F - 74.5 °F 96% 29.94 in 10.0 mi SSE 4.6 mph - 0.08 in Rain Light Rain
4:35 AM 75.6 °F - 74.8 °F 98% 29.93 in 5.0 mi SSE 3.5 mph - 0.10 in Rain Light Rain
4:55 AM 75.6 °F - 74.8 °F 98% 29.93 in 10.0 mi SSE 6.9 mph - 0.10 in Rain , Thunderstorm Light Thunderstorms and Rain
5:15 AM 75.4 °F - 74.7 °F 98% 29.93 in 10.0 mi SE 3.5 mph - N/A Thunderstorm Thunderstorm
5:35 AM 75.2 °F - 74.5 °F 98% 29.93 in 10.0 mi SE 3.5 mph - N/A   Clear
5:55 AM 75.0 °F - 74.3 °F 98% 29.93 in - Calm Calm - N/A   Clear
6:15 AM 74.8 °F - 74.1 °F 98% 29.94 in 10.0 mi ESE 4.6 mph - N/A   Scattered Clouds
6:35 AM 75.2 °F - 73.4 °F 94% 29.94 in 10.0 mi Calm Calm - N/A   Mostly Cloudy
6:55 AM 74.3 °F - 73.8 °F 98% 29.94 in 10.0 mi East 4.6 mph - N/A   Scattered Clouds
7:15 AM 74.7 °F - 74.1 °F 98% 29.94 in 10.0 mi East 3.5 mph - N/A   Scattered Clouds
7:35 AM 75.4 °F - 74.7 °F 98% 29.95 in 10.0 mi Calm Calm - N/A   Scattered Clouds
7:55 AM 75.9 °F - 74.7 °F 96% 29.95 in 10.0 mi SE 4.6 mph - N/A   Clear
8:15 AM 76.5 °F - 75.2 °F 96% 29.96 in 10.0 mi SE 5.8 mph - N/A   Scattered Clouds
8:35 AM 76.8 °F - 75.4 °F 95% 29.96 in 10.0 mi SE 4.6 mph - N/A   Mostly Cloudy
8:55 AM 77.7 °F - 76.5 °F 96% 29.97 in 10.0 mi SE 4.6 mph - N/A   Scattered Clouds
9:15 AM 79.3 °F - 76.8 °F 92% 29.98 in 10.0 mi SSE 5.8 mph - N/A   Scattered Clouds
9:35 AM 81.1 °F 88.9 °F 77.9 °F 90% 29.97 in 10.0 mi SSE 3.5 mph - N/A   Scattered Clouds
9:55 AM 81.7 °F 90.0 °F 77.9 °F 88% 29.98 in 10.0 mi SSE 4.6 mph - N/A   Scattered Clouds
10:15 AM 84.0 °F 95.6 °F 78.6 °F 84% 29.98 in 10.0 mi South 8.1 mph - N/A   Scattered Clouds
10:35 AM 84.2 °F 95.3 °F 78.1 °F 82% 29.99 in 10.0 mi South 9.2 mph - N/A   Scattered Clouds
10:55 AM 84.7 °F 95.6 °F 77.5 °F 79% 29.99 in 10.0 mi South 6.9 mph - N/A   Scattered Clouds
11:15 AM 86.0 °F 97.8 °F 77.5 °F 76% 29.99 in 10.0 mi South 9.2 mph - N/A   Scattered Clouds
11:35 AM 87.1 °F 99.8 °F 77.7 °F 74% 29.99 in 10.0 mi SSE 9.2 mph - N/A   Mostly Cloudy
11:55 AM 87.8 °F 100.2 °F 77.4 °F 71% 29.99 in 10.0 mi SSE 5.8 mph - N/A   Scattered Clouds
12:15 PM 88.9 °F 100.9 °F 76.8 °F 67% 29.99 in 10.0 mi South 6.9 mph - N/A   Mostly Cloudy
12:35 PM 87.3 °F 98.2 °F 76.3 °F 70% 29.99 in 10.0 mi SSE 10.4 mph - N/A   Mostly Cloudy
12:55 PM 88.3 °F 99.5 °F 76.1 °F 67% 29.98 in 10.0 mi South 6.9 mph - N/A   Mostly Cloudy
1:15 PM 87.3 °F 96.8 °F 75.2 °F 67% 29.98 in 10.0 mi South 12.7 mph 18.4 mph N/A   Mostly Cloudy
1:35 PM 88.0 °F 98.5 °F 75.7 °F 67% 29.97 in 10.0 mi SSW 8.1 mph - N/A   Mostly Cloudy
1:55 PM 90.3 °F 101.0 °F 75.0 °F 61% 29.97 in 7.0 mi South 18.4 mph 23.0 mph N/A   Mostly Cloudy
2:15 PM 88.2 °F 100.1 °F 76.8 °F 69% 29.97 in 10.0 mi South 10.4 mph - N/A   Mostly Cloudy
2:35 PM 89.6 °F 103.4 °F 77.7 °F 68% 29.96 in 7.0 mi South 12.7 mph - N/A   Scattered Clouds
2:55 PM 89.6 °F 102.2 °F 76.8 °F 66% 29.96 in 10.0 mi South 16.1 mph - N/A   Scattered Clouds
3:15 PM 89.2 °F 101.8 °F 77.2 °F 67% 29.96 in 10.0 mi South 15.0 mph - N/A Thunderstorm Clear
3:35 PM 88.0 °F 99.6 °F 76.8 °F 69% 29.96 in 10.0 mi SSW 16.1 mph 20.7 mph N/A   Mostly Cloudy
3:55 PM 78.3 °F - 75.0 °F 90% 29.98 in 7.0 mi SW 18.4 mph 29.9 mph N/A Rain , Thunderstorm Light Thunderstorms and Rain
4:15 PM 77.7 °F - 74.7 °F 90% 29.99 in 10.0 mi SW 12.7 mph 23.0 mph N/A Thunderstorm Mostly Cloudy
4:35 PM 77.5 °F - 75.7 °F 94% 29.98 in 10.0 mi WSW 6.9 mph - N/A Rain , Thunderstorm Light Thunderstorms and Rain
4:55 PM 77.9 °F - 75.4 °F 92% 29.98 in 10.0 mi West 6.9 mph - N/A Thunderstorm Mostly Cloudy
5:15 PM 77.4 °F - 75.0 °F 92% 29.98 in 10.0 mi WNW 5.8 mph - N/A   Mostly Cloudy
5:35 PM 77.5 °F - 75.0 °F 92% 29.98 in 10.0 mi WNW 4.6 mph - N/A   Overcast
5:55 PM 77.7 °F - 74.8 °F 91% 29.99 in 10.0 mi NW 3.5 mph - N/A   Overcast
6:15 PM 77.5 °F - 74.5 °F 90% 29.98 in 10.0 mi North 3.5 mph - N/A Thunderstorm Mostly Cloudy
6:35 PM 77.7 °F - 74.8 °F 91% 29.99 in 10.0 mi NNE 4.6 mph - N/A   Scattered Clouds
6:55 PM 77.7 °F - 74.5 °F 90% 30.00 in 10.0 mi ENE 4.6 mph - N/A   Mostly Cloudy
7:15 PM 77.5 °F - 74.3 °F 90% 30.01 in 10.0 mi NE 4.6 mph - N/A   Overcast
7:35 PM 77.4 °F - 74.5 °F 91% 30.02 in 10.0 mi East 4.6 mph - N/A   Overcast
7:55 PM 77.0 °F - 74.3 °F 91% 30.03 in 10.0 mi East 6.9 mph - N/A   Scattered Clouds
8:15 PM 76.8 °F - 74.1 °F 91% 30.04 in 10.0 mi ESE 4.6 mph - N/A   Mostly Cloudy
8:35 PM 76.8 °F - 74.1 °F 91% 30.04 in 3.5 mi ENE 3.5 mph - N/A   Overcast
8:55 PM 77.2 °F - 74.5 °F 91% 30.04 in 7.0 mi Calm Calm - N/A   Scattered Clouds
9:15 PM 77.2 °F - 74.7 °F 92% 30.04 in 10.0 mi East 3.5 mph - N/A   Clear
9:35 PM 77.2 °F - 74.8 °F 92% 30.05 in 10.0 mi ESE 3.5 mph - N/A   Mostly Cloudy
9:55 PM 76.8 °F - 75.0 °F 94% 30.06 in 10.0 mi Calm Calm - N/A Rain Light Rain
10:15 PM 76.6 °F - 75.2 °F 95% 30.06 in 10.0 mi ESE 3.5 mph - N/A   Overcast
10:35 PM 76.5 °F - 75.2 °F 96% 30.06 in 10.0 mi East 3.5 mph - N/A   Mostly Cloudy
10:55 PM 76.5 °F - 75.2 °F 96% 30.06 in 10.0 mi ESE 3.5 mph - N/A   Mostly Cloudy
11:15 PM 77.0 °F - 73.4 °F 89% 30.06 in 10.0 mi SSE 3.5 mph - N/A   Scattered Clouds
11:35 PM 76.1 °F - 73.6 °F 92% 30.06 in 10.0 mi SSE 5.8 mph - N/A   Clear
11:55 PM 76.1 °F - 73.2 °F 91% 30.05 in 10.0 mi SSE 5.8 mph - N/A   Clear